Location: Avenches
(46.8809°N, 7.0410°E)
Time: 14:06:14
(UTC+00:00)

X-37B - Pass Details

Date: 12 March 2021
Orbit: 380 x 394 km, 45.0° (Epoch: 07 April)

Event Time Altitude Azimuth Distance (km) Brightness Sun altitude
Rises 18:17:08 0° 209° (SSW) 2,260 4.8 -8.3°
Reaches altitude 10° 18:19:50 10° 184° (S) 1,413 3.4 -8.8°
Maximum altitude 18:21:41 15° 148° (SSE) 1,180 2.7 -9.1°
Enters shadow 18:23:06 12° 119° (ESE) 1,329 2.7 -9.3°
